Change the Weather History Date:

Monday, May 12, 2014

  Actual Average (KLWD) Record (KLWD)
Temperature  
Mean Temperature 62 °F 60 °F  
Max Temperature 74 °F 70 °F 84 °F (1988)
Min Temperature 50 °F 50 °F 35 °F (2013)
Degree Days  
Heating Degree Days 4 6  
Month to date heating degree days 90  
Since 1 July heating degree days 5985  
Cooling Degree Days 0 1  
Month to date cooling degree days 8  
Year to date cooling degree days 15  
Growing Degree Days 12 (Base 50)    
Moisture  
Dew Point 60 °F    
Average Humidity 87    
Maximum Humidity 95    
Minimum Humidity 72    
Precipitation  
Precipitation 0.80 in 0.16 in 1.87 in (2014)
Month to date precipitation 1.98  
Sea Level Pressure  
Sea Level Pressure 29.79 in    
Wind  
Wind Speed 12 mph (SW)    
Max Wind Speed 23 mph    
Max Gust Speed 46 mph    
Visibility 9 miles    
Events Rain    
T = Trace of Precipitation, MM = Missing Value Source: NWS Daily Summary

Daily Weather History Graph

Daily Weather History Graph

Search for Another Location

Airport or City:

Trip Planner

Search our weather history database for the weather conditions in past years. The results will help you decide how hot, cold, wet, or windy it might be!

Date:

Astronomy

May. 12, 2014 Rise Set
Actual Time 5:59 AM CDT 8:23 PM CDT
Civil Twilight 5:28 AM CDT 8:54 PM CDT
Nautical Twilight 4:50 AM CDT 9:32 PM CDT
Astronomical Twilight 4:07 AM CDT 10:15 PM CDT
Moon 6:20 PM CDT (5/12) 4:40 AM CDT (5/12)
Length of Visible Light 15h 25m
Length of Day
14h 23m
Waxing Gibbous, 95% of the Moon is Illuminated
May 12
Waxing Gibbous
May 14
Full
May 21
Last Quarter
May 28
New
Jun 5
First Quarter

Hourly Weather History & Observations

Time (CDT) Temp. Dew Point Humidity Pressure Visibility Wind Dir Wind Speed Gust Speed Precip Events Conditions
12:15 AM 66.2 °F 60.3 °F 81% 29.77 in 10.0 mi NNW 12.7 mph - N/A   Overcast
12:35 AM 64.9 °F 60.4 °F 85% 29.76 in 10.0 mi NNE 11.5 mph - N/A Rain Light Rain
12:55 AM 64.4 °F 60.6 °F 88% 29.78 in 10.0 mi North 11.5 mph 21.9 mph N/A   Overcast
1:15 AM 63.7 °F 60.8 °F 90% 29.77 in 7.0 mi North 21.9 mph 27.6 mph 0.03 in Rain Heavy Rain
1:35 AM 63.3 °F 60.8 °F 91% 29.73 in 1.5 mi East 16.1 mph 27.6 mph 0.28 in Rain Heavy Rain
1:55 AM 63.7 °F 61.0 °F 91% 29.75 in 10.0 mi East 10.4 mph - 0.28 in   Mostly Cloudy
2:15 AM 63.5 °F 61.2 °F 92% 29.75 in 10.0 mi North 5.8 mph - N/A   Mostly Cloudy
2:35 AM 63.9 °F 61.7 °F 93% 29.73 in 10.0 mi NE 5.8 mph - N/A   Overcast
2:55 AM 63.9 °F 61.7 °F 93% 29.76 in 10.0 mi NNE 6.9 mph - N/A   Overcast
3:15 AM 63.5 °F 61.7 °F 94% 29.74 in 10.0 mi NE 8.1 mph - N/A   Overcast
3:35 AM 63.5 °F 61.7 °F 94% 29.71 in 10.0 mi ENE 11.5 mph - N/A Rain Light Rain
3:55 AM 63.0 °F 61.3 °F 94% 29.70 in 10.0 mi East 11.5 mph - N/A Rain Light Rain
4:15 AM 63.0 °F 61.3 °F 94% 29.73 in 10.0 mi ENE 9.2 mph - N/A   Overcast
4:35 AM 63.5 °F 61.7 °F 94% 29.74 in 10.0 mi East 6.9 mph - N/A   Light Drizzle
4:55 AM 63.0 °F 61.3 °F 94% 29.72 in 10.0 mi ENE 9.2 mph - 0.01 in Rain Light Rain
5:35 AM 64.8 °F 63.0 °F 94% 29.71 in 10.0 mi ESE 9.2 mph - 0.01 in Rain Light Rain
5:55 AM 67.1 °F 65.5 °F 95% 29.73 in 10.0 mi South 23.0 mph 29.9 mph 0.02 in Rain Light Rain
6:15 AM 70.3 °F 66.6 °F 88% 29.74 in 7.0 mi South 20.7 mph 31.1 mph 0.02 in Rain Light Rain
6:35 AM 70.7 °F 62.1 °F 74% 29.70 in 10.0 mi SSE 21.9 mph 46.0 mph 0.04 in Rain Light Rain
6:55 AM 69.6 °F 61.2 °F 74% 29.70 in 10.0 mi SSE 17.3 mph - 0.04 in   Light Drizzle
7:15 AM 69.4 °F 60.1 °F 72% 29.75 in 10.0 mi SW 17.3 mph 20.7 mph N/A Rain Light Rain
7:35 AM 67.6 °F 62.8 °F 84% 29.78 in 10.0 mi WSW 12.7 mph 21.9 mph 0.02 in Rain Light Rain
7:55 AM 67.3 °F 63.9 °F 89% 29.78 in 10.0 mi WSW 10.4 mph - 0.06 in Rain Rain
8:15 AM 67.1 °F 64.0 °F 90% 29.79 in 10.0 mi SW 12.7 mph - 0.02 in Rain Light Rain
8:35 AM 66.9 °F 62.8 °F 87% 29.69 in 7.0 mi ENE 13.8 mph - 0.07 in Rain Rain
8:55 AM 66.2 °F 62.6 °F 88% 29.71 in 10.0 mi East 5.8 mph - 0.08 in   Mostly Cloudy
9:15 AM 66.0 °F 62.8 °F 89% 29.71 in 7.0 mi WNW 3.5 mph - N/A   Scattered Clouds
9:35 AM 66.9 °F 63.7 °F 89% 29.73 in 10.0 mi SSE 5.8 mph - N/A   Clear
9:55 AM 68.4 °F 63.9 °F 85% 29.72 in 10.0 mi SSE 9.2 mph - N/A   Scattered Clouds
10:15 AM 69.3 °F 64.4 °F 84% 29.75 in 7.0 mi SSE 12.7 mph - N/A   Scattered Clouds
10:35 AM 68.9 °F 64.9 °F 87% 29.76 in 10.0 mi SSE 11.5 mph - N/A   Mostly Cloudy
10:55 AM 69.1 °F 65.1 °F 87% 29.76 in 10.0 mi SSE 10.4 mph - N/A   Scattered Clouds
11:15 AM 71.4 °F 65.5 °F 81% 29.76 in 10.0 mi SE 12.7 mph 18.4 mph N/A   Scattered Clouds
11:35 AM 73.8 °F 65.1 °F 74% 29.76 in 7.0 mi SSE 12.7 mph - N/A   Scattered Clouds
11:55 AM 73.6 °F 64.4 °F 73% 29.75 in 7.0 mi SSE 12.7 mph - N/A   Mostly Cloudy
12:15 PM 72.0 °F 64.9 °F 78% 29.75 in 10.0 mi SE 9.2 mph - N/A Rain Light Rain
12:35 PM 71.6 °F 65.5 °F 81% 29.77 in 10.0 mi SSE 10.4 mph 16.1 mph 0.01 in Rain Light Rain
12:55 PM 70.2 °F 66.2 °F 87% 29.76 in 7.0 mi SW 3.5 mph - 0.14 in Rain Rain
1:15 PM 69.8 °F 66.7 °F 90% 29.76 in 2.0 mi SSW 6.9 mph - 0.15 in Rain Light Rain
1:35 PM 70.3 °F 67.3 °F 90% 29.75 in 10.0 mi SSW 11.5 mph - 0.16 in Rain Light Rain
1:55 PM 70.7 °F 67.1 °F 88% 29.70 in 7.0 mi SE 11.5 mph - 0.16 in   Overcast
2:35 PM 70.7 °F 67.5 °F 89% 29.75 in 10.0 mi South 11.5 mph - 0.01 in Rain Light Rain
2:55 PM 70.3 °F 67.3 °F 90% 29.75 in 10.0 mi South 10.4 mph - 0.01 in Rain Light Rain
3:15 PM 69.3 °F 65.1 °F 87% 29.73 in 7.0 mi SSW 10.4 mph 16.1 mph N/A   Mostly Cloudy
3:35 PM 68.5 °F 64.0 °F 85% 29.75 in 10.0 mi South 16.1 mph 21.9 mph N/A   Light Drizzle
3:55 PM 68.0 °F 64.4 °F 88% 29.75 in 7.0 mi SSW 13.8 mph - N/A   Overcast
4:15 PM 68.2 °F 64.8 °F 89% 29.76 in 7.0 mi WSW 16.1 mph 20.7 mph N/A   Overcast
4:35 PM 65.3 °F 62.2 °F 90% 29.76 in 4.0 mi WSW 17.3 mph - N/A   Overcast
4:55 PM 63.5 °F 60.4 °F 90% 29.78 in 7.0 mi West 16.1 mph 20.7 mph N/A   Overcast
5:15 PM 61.9 °F 59.0 °F 90% 29.79 in 5.0 mi West 15.0 mph 19.6 mph N/A   Overcast
5:35 PM 60.1 °F 56.5 °F 88% 29.82 in 7.0 mi West 15.0 mph - N/A   Overcast
5:55 PM 59.4 °F 55.8 °F 88% 29.83 in 7.0 mi West 16.1 mph 20.7 mph N/A   Overcast
6:15 PM 58.6 °F 54.9 °F 87% 29.82 in 10.0 mi West 17.3 mph 21.9 mph N/A   Overcast
6:35 PM 58.1 °F 53.8 °F 86% 29.82 in 10.0 mi West 13.8 mph - N/A   Overcast
6:55 PM 57.4 °F 53.1 °F 85% 29.82 in 10.0 mi West 16.1 mph 21.9 mph N/A   Overcast
7:15 PM 56.5 °F 52.3 °F 86% 29.83 in 10.0 mi West 15.0 mph 19.6 mph N/A   Overcast
7:35 PM 55.8 °F 51.3 °F 85% 29.82 in 10.0 mi WNW 20.7 mph 26.5 mph N/A   Overcast
7:55 PM 55.0 °F 50.0 °F 83% 29.84 in 10.0 mi WNW 18.4 mph 24.2 mph N/A   Overcast
8:15 PM 55.0 °F 50.0 °F 83% 29.86 in 10.0 mi West 15.0 mph 20.7 mph N/A   Overcast
8:35 PM 54.1 °F 49.6 °F 85% 29.89 in 10.0 mi WNW 18.4 mph - N/A   Overcast
8:55 PM 53.8 °F 48.9 °F 84% 29.89 in 10.0 mi WNW 12.7 mph - N/A   Overcast
9:15 PM 53.2 °F 48.6 °F 84% 29.91 in 10.0 mi WNW 15.0 mph 21.9 mph N/A   Overcast
9:35 PM 52.7 °F 48.0 °F 84% 29.92 in 10.0 mi WNW 15.0 mph 23.0 mph N/A   Overcast
9:55 PM 52.0 °F 47.7 °F 85% 29.94 in 10.0 mi WNW 12.7 mph - N/A   Overcast
10:15 PM 51.8 °F 47.5 °F 85% 29.96 in 10.0 mi WNW 13.8 mph 17.3 mph N/A   Overcast
10:35 PM 50.9 °F 47.7 °F 89% 29.98 in 10.0 mi WNW 9.2 mph - N/A   Overcast
10:55 PM 50.4 °F 47.8 °F 91% 29.98 in 7.0 mi WNW 9.2 mph - N/A   Overcast
11:15 PM 50.5 °F 47.5 °F 89% 29.97 in 10.0 mi WNW 9.2 mph - N/A   Overcast
11:35 PM 50.4 °F 46.9 °F 88% 29.96 in 10.0 mi WNW 9.2 mph - N/A   Overcast
11:55 PM 50.2 °F 46.6 °F 87% 29.96 in 10.0 mi NW 9.2 mph - N/A   Overcast